Regional Weather Roundup
Issued by NWS Sioux Falls, SD

Home | Current Version | Previous Version | Text Only | Print | Product List | Glossary On
Versions: 1 2 3 4 5 6 7 8 9 10 11 12 13 14 15 16 17 18 19 20 21 22 23 24 25 26 27 28 29 30 31 32 33 34 35 36 37 38 39 40 41 42 43 44 45 46 47 48 49 50
000
ASUS43 KFSD 271202
RWRFSD

WEATHER ROUNDUP FOR SE SOUTH DAKOTA/SW MINNESOTA/NW IOWA
NATIONAL WEATHER SERVICE SIOUX FALLS SD
700 AM CDT THU APR 27 2017

NOTE: "FAIR" INDICATES FEW OR NO CLOUDS BELOW 12,000 FEET WITH NO
SIGNIFICANT WEATHER AND OR OBSTRUCTIONS TO VISIBILITY.


SDZ038>040-050-052>070-271300-
SOUTHEAST SOUTH DAKOTA

CITY           SKY/WX    TMP DP  RH WIND       PRES   REMARKS
BROOKINGS      CLOUDY    28  24  85 NW17G26   29.62S WCI  16
CHAMBERLAIN    CLOUDY    32  31  93 W8        29.69S WCI  25
6HR MIN TEMP:  27; 6HR MAX TEMP:  33;

HURON          CLOUDY    30  25  81 N13       29.70R WCI  20
6HR MIN TEMP:  30; 6HR MAX TEMP:  30;

MADISON        CLOUDY    27  27 100 N16G24    29.64R WCI  14
MITCHELL       CLOUDY    32  26  78 NW14      29.69S WCI  22
6HR MIN TEMP:  31; 6HR MAX TEMP:  33;

SIOUX FALLS    CLOUDY    31  26  82 NW12      29.65R WCI  22
6HR MIN TEMP:  30; 6HR MAX TEMP:  32;

WINNER         FOG       24  21  88 W5        29.69S VSB 1/2 WCI  18
YANKTON        MOCLDY    30  25  80 NW10      29.68R WCI  21
$$

MNZ071-072-080-081-089-090-097-098-271300-
SOUTHWEST MINNESOTA

CITY           SKY/WX    TMP DP  RH WIND       PRES   REMARKS
FAIRMONT       CLOUDY    30  28  92 NW16      29.58S WCI  19
JACKSON        CLOUDY    30  28  93 NW14G20   29.59S WCI  20
LUVERNE        CLOUDY    30  27  86 N12       29.64R WCI  21
MARSHALL       CLOUDY    28  24  85 NW16      29.63R WCI  16
6HR MIN TEMP:  28; 6HR MAX TEMP:  30; 6HR PCP: TRACE;

MONTEVIDEO     CLOUDY    28  28 100 N12       29.62R FOG     WCI  18
PIPESTONE      CLOUDY    28  21  74 N17G25    29.61R WCI  16
REDWOOD FALLS  LGT SNOW  30  27  88 NW12G23   29.59R FOG     WCI  20
TRACY          CLOUDY    29  26  89 NW18      29.62R WCI  17
WINDOM         MOCLDY    28  28 100 NW17      29.59S WCI  16
WORTHINGTON    CLOUDY    28  25  88 NW17G23   29.61S WCI  16
$$

IAZ001>003-012>014-020>022-031-032-NEZ013-014-SDZ071-271300-
NORTHWEST IOWA

CITY           SKY/WX    TMP DP  RH WIND       PRES   REMARKS
CHEROKEE       CLOUDY    31  29  92 NW10G17   29.64S WCI  23
DENISON        CLOUDY    34  28  80 NW7G13    29.67R WCI  28
ESTHERVILLE    CLOUDY    29  28  96 NW16      29.59S WCI  17
LE MARS        CLOUDY    32  28  86 NW13      29.67R WCI  22
ORANGE CITY    CLOUDY    30  28  93 NW10      29.64R WCI  21
SHELDON        CLOUDY    30  25  80 N16G24    29.62R WCI  19
SIOUX CITY     CLOUDY    33  28  81 NW13      29.67R WCI  24
6HR MIN TEMP:  32; 6HR MAX TEMP:  35;

SPENCER        CLOUDY    30  27  88 NW13      29.61S WCI  20
6HR MIN TEMP:  30; 6HR MAX TEMP:  32; 6HR PCP: TRACE;

STORM LAKE     CLOUDY    30  28  93 NW15      29.62R WCI  19
$$

ABBREVIATIONS USED IN REMARKS
   TC - TEMPERATURE IN CELSIUS
  WCI - WIND CHILL INDEX
   HX - HEAT INDEX
  VSB - VISIBILITY





USA.gov is the U.S. government's official web portal to all federal, state and local government web resources and services.